Regional Weather Roundup
Issued by NWS

Home | Current Version | Previous Version | Graphics & Text | Print | Product List | Glossary On
Versions: 1 2 3 4 5 6 7 8 9 10 11 12 13 14 15 16 17 18 19 20 21 22 23 24 25 26 27 28 29 30 31 32 33 34 35 36 37 38 39 40 41 42 43 44 45 46 47 48 49 50
000
ASUS45 KBOI 280510
RWRID
WEATHER ROUNDUP FOR IDAHO
NATIONAL WEATHER SERVICE BOISE ID
1000 PM MST THU NOV 27 2014

NOTE: "FAIR" INDICATES FEW OR NO CLOUDS BELOW 12000 FEET
WITH NO SIGNIFICANT WEATHER AND/OR OBSTRUCTIONS TO VISIBILITY

IDZ012-014-280600-
SOUTHWEST IDAHO


CITY           SKY/WX    TMP DP  RH WIND       PRES   REMARKS
BOISE          CLOUDY    44  42  93 NW5       30.00R
CALDWELL       NOT AVBL
MOUNTAIN HOME  CLOUDY    44  44 100 E7        29.99F
$$

IDZ016-017-280600-
SOUTHCENTRAL IDAHO


CITY           SKY/WX    TMP DP  RH WIND       PRES   REMARKS
BURLEY         CLOUDY    54  28  36 SW13      30.03F
JEROME         CLOUDY    49  31  49 SE8       30.04S
TWIN FALLS     CLOUDY    57  27  31 S17       30.02F
$$

IDZ019>023-280600-
SOUTHEAST IDAHO


CITY           SKY/WX    TMP DP  RH WIND       PRES   REMARKS
IDAHO FALLS    CLOUDY    44  30  57 SW8       30.06F
POCATELLO      CLEAR     46  27  47 SW9       30.06S
REXBURG        CLOUDY    47  26  44 S12       30.05S
$$

IDZ006-010-011-018-031-032-280600-
CENTRAL IDAHO MOUNTAINS


CITY           SKY/WX    TMP DP  RH WIND       PRES   REMARKS
MCCALL         LGT RAIN  35  34  96 NE7       30.02R WCI  29
HAILEY         CLEAR     37  34  87 W7        30.09F WCI  32
STANLEY          N/A     37  30  75 VRB6      30.07F WCI  32
SALMON         CLOUDY    46  36  66 NE3       29.95S
CHALLIS        MOCLDY    41  33  73 CALM      30.00F
$$

IDZ002-004-006-007-026-280600-
NORTHERN IDAHO


CITY           SKY/WX    TMP DP  RH WIND       PRES   REMARKS
LEWISTON       CLOUDY    57  44  62 S12       29.81F
LOWELL           N/A     42  41  96 CALM      29.91F
COEUR D`ALENE  MOCLDY    50  41  71 SW8       29.74S
MULLAN PASS    LGT RAIN  36  36 100 SW16G36   29.78S FOG     WCI  26
$$



USA.gov is the U.S. government's official web portal to all federal, state and local government web resources and services.